Location: Franzen
(48.6167°N, 15.3833°E)
Time: 10:19:33
(UTC+00:00)

Cosmos 2327 Rocket - Pass Details

Date: 22 April 2021
Orbit: 944 x 1007 km, 83.0° (Epoch: 16 May)

Event Time Altitude Azimuth Distance (km) Brightness Sun altitude
Rises 23:07:01 0° 350° (N) 3,683 8.7 -28.8°
Reaches altitude 10° 23:09:31 10° 350° (N) 2,741 7.7 -28.8°
Maximum altitude 23:15:49 86° 264° (W) 1,000 4.4 -28.7°
Enters shadow 23:16:07 81° 203° (SSW) 1,007 4.3 -28.7°
